Bateen Airport
OMAD : now visible

Airfield :











YOU CAN JOIN US ON...

 
LOGIN :

Register | Disclaimer

   EN    FR    IT 

 









Legend :    VFR   Marginal VFR   IFR   Intensive IFR   Very Intensive IFR
Visi :
Ceiling :
>= 8 km
>= 3000ft
5 to 8 km
1000 to 3000 ft
1500m to 5 km
500 to 1000 ft
800 to 1500m
200 to 500 ft
< 800m
< 200 ft
Symbols :   Thunderstorms  Fog  Heavy snow  Heavy precipitations  Wind > 20 kt







- Airport Elevation : 16 ft
- IATA code : AZI


OMAD - Bateen

CURRENT METAR :
  • 171500Z 35005KT 310V030 CAVOK 36/29 Q0997 NOSIG

EXPIRED METARs :
  • 171400Z 34008KT CAVOK 37/28 Q0997 NOSIG
  • 171300Z 33007KT 300V030 CAVOK 39/24 Q0997 NOSIG

TAF TAF OMAD
Valid from the 17 at 12:00 until the 18 at 18:00 UTC


171100Z 1712/1818 32012KT 8000 NSC
BECMG 1718/1720 24005KT
PROB40 1723/1803 4000 HZ
PROB30
TEMPO 1801/1803 2500 BR
BECMG 1804/1806 30012KT
OMAE FIR / Asia



MET'MAP, your aeronautical weather chart ! - Copyright ORBIFLY December 2007 - Disclaimer

ORBIFLY MET'MAP TEAM :

Programming & Development : Alexandra Zaïnal
Concept & Development : Baudouin d'Aumeries
Co-Development & Prog : Marc-Olivier Méhu
Technical & hardware support : Manuel Goepfert

Contact : metmap@orbifly.com




SOURCES & CREDITS :

   NOAA       Earth
Advisory